Wind_Speed
42 39 38 35 36 35 37 38 37 31 24 23 22 25 26 27 27 24 17 21 24 22 20 16 19 14 16 13 15 14 15 13 15 17 19 16 17 16 16 15 13 11 9 7
41 40 41 42 39 38 37 34 32 31 33 30 28 28 30 32 27 24 26 27 26 22 25 27 24 18 20 21 15 13 14 20 22 25 27 25 24 23 22 21 21 18 16 17
44 43 40 38 36 35 37 39 37 34 32 32 31 24 24 24 27 28 29 31 35 30 27 28 26 24 22 20 18 21 19 21 22 22 28 30 32 33 32 28 28 22 18 17
40 40 37 33 31 33 36 34 34 34 31 24 23 24 28 31 30 33 35 42 42 36 24 18 22 23 17 11 18 18 18 17 16 19 16 14 14 17 19 21 24 26 22 20
40 38 35 34 34 36 38 35 32 30 29 27 26 29 32 34 37 41 44 45 39 26 24 19 20 18 14 17 15 19 18 17 13 14 10 12 17 17 20 24 26 26 27 24
40 41 40 39 40 38 36 36 34 34 30 34 37 38 40 40 44 44 46 39 26 21 18 16 15 15 16 14 18 19 16 15 15 10 12 10 14 18 21 26 29 30 31 28
30 32 34 37 38 38 40 40 38 42 38 41 43 46 48 46 48 40 29 20 19 16 15 14 13 13 17 13 10 12 10 12 8 8 5 2 4 6 14 19 23 29 31 29
34 36 34 34 33 36 37 39 43 44 46 50 51 48 45 38 31 23 22 21 20 20 14 13 14 12 13 13 14 21 19 13 8 8 5 8 9 10 13 19 18 20 27 30
51 52 49 45 44 45 48 44 44 45 45 45 38 34 30 28 28 27 24 23 23 23 20 18 18 16 14 19 26 22 15 10 4 3 3 9 16 17 24 28 21 23 27 24
28 30 34 38 44 49 46 41 33 33 30 30 32 33 34 34 34 30 22 24 23 21 26 23 21 21 22 29 26 17 12 11 5 4 9 14 24 25 30 32 26 24 29 22
24 26 26 26 26 24 22 21 23 25 25 28 31 33 34 33 31 28 27 25 21 22 26 25 24 25 27 36 28 27 18 17 19 19 22 22 25 26 38 35 27 20 26 23
26 25 26 25 24 23 24 29 30 30 30 34 35 34 30 26 26 27 28 22 21 21 27 28 27 21 28 35 31 27 31 28 27 32 32 33 30 31 34 34 28 26 25 28
28 28 29 31 30 32 30 29 27 26 27 31 31 30 25 22 23 26 23 18 14 18 23 26 28 18 21 28 30 33 32 33 33 36 34 30 35 29 26 30 30 30 34 29
37 29 26 32 33 31 30 29 28 28 29 29 27 26 25 21 22 24 22 18 12 13 16 19 23 26 19 27 33 33 32 31 34 33 33 32 26 23 28 25 20 31 38 32
37 38 33 33 33 32 31 32 32 30 29 30 27 27 26 20 20 23 22 20 15 11 11 16 18 20 19 23 25 30 28 27 25 28 30 19 23 25 22 19 17 18 20 31
34 35 38 38 35 34 33 32 31 29 27 27 29 29 28 24 20 20 22 21 17 13 13 20 24 24 21 22 23 23 25 27 31 36 31 24 21 21 17 12 12 11 12 16
35 37 37 39 40 39 35 37 33 30 29 26 28 29 29 27 23 23 19 22 20 17 15 15 16 19 23 24 25 27 27 30 31 26 20 19 17 19 16 10 7 7 9 10
33 38 38 34 38 36 41 36 33 28 28 28 29 31 29 26 23 23 21 20 21 20 18 18 22 23 26 24 26 28 27 23 21 19 18 18 18 15 12 12 11 12 11 12
30 32 31 30 31 30 31 29 30 32 31 29 30 33 31 28 26 22 24 21 20 21 22 24 23 23 28 30 25 26 27 23 20 15 16 16 14 11 11 11 12 13 14 13
33 34 37 37 37 35 37 36 34 34 33 31 31 33 33 32 30 24 22 22 20 19 21 25 27 28 29 23 20 20 18 13 10 11 15 15 14 13 14 13 13 13 14 14
34 33 33 33 35 36 38 37 36 31 30 30 30 29 33 33 33 28 23 21 20 20 21 24 23 21 20 18 18 15 12 10 11 12 12 18 19 18 18 19 19 20 21 22
38 35 33 35 30 28 33 37 34 32 31 30 28 28 33 35 31 31 26 24 24 22 21 21 23 23 19 17 18 19 16 12 16 15 16 18 19 19 20 22 23 24 24 25
49 45 41 39 34 34 36 34 32 29 29 32 32 31 31 35 31 28 29 25 26 22 22 23 23 23 20 16 12 14 18 16 21 24 18 17 21 23 23 24 24 26 29 31
57 56 56 52 42 41 40 39 37 34 29 27 33 35 33 33 35 33 31 29 30 28 23 23 23 24 23 21 14 19 24 22 25 22 22 20 23 23 23 24 27 29 27 26
64 63 63 63 57 55 51 47 44 42 40 34 31 34 38 38 38 37 34 33 33 33 29 28 26 26 25 24 29 28 29 30 32 32 26 23 25 24 26 28 27 22 22 24
78 76 74 71 67 65 63 59 54 51 48 46 41 34 34 35 37 39 39 34 34 33 30 30 29 28 28 28 28 31 33 32 30 30 25 25 26 27 29 26 21 21 22 20
Wind_Direction
213 216 219 220 220 223 228 232 234 233 231 233 243 258 267 276 288 285 287 300 309 300 297 296 309 324 328 281 292 259 247 245 229 245 243 242 245 228 235 227 258 240 246 249
213 218 218 222 224 224 227 225 228 234 237 242 249 260 272 278 279 274 289 300 312 303 297 294 299 309 311 306 274 258 265 247 246 244 246 241 236 236 241 244 256 263 254 262
215 222 227 232 236 239 238 237 238 246 251 259 251 253 258 274 278 279 292 298 310 299 292 289 292 296 305 295 264 265 264 266 253 254 241 240 248 257 265 261 257 259 257 262
219 224 228 232 235 240 247 251 257 264 266 254 258 262 265 272 279 285 290 303 305 298 289 284 278 291 305 307 268 262 256 280 255 252 262 252 230 245 247 253 251 252 249 258
222 225 226 226 219 225 229 238 244 248 257 263 270 274 273 273 277 283 290 295 297 289 290 287 279 282 269 289 289 264 253 254 249 247 257 248 248 256 258 263 263 258 252 258
231 229 230 228 224 227 233 232 241 255 260 263 272 278 281 282 281 284 285 288 286 283 277 272 265 265 262 267 272 245 235 217 215 224 251 260 253 259 260 262 257 256 255 259
242 243 245 246 249 241 241 245 253 266 267 272 275 278 280 281 282 279 275 279 276 277 273 262 263 241 246 252 244 207 189 185 161 142 126 187 251 259 292 297 275 252 251 249
246 249 255 260 261 256 253 254 261 267 269 275 281 282 278 274 268 264 268 271 272 271 265 245 248 243 228 221 180 157 151 150 97 88 68 30 21 357 347 337 284 266 247 244
239 243 247 247 251 255 255 260 266 269 270 275 271 264 262 262 266 269 271 276 272 268 254 235 226 212 205 189 163 160 163 159 123 121 332 338 336 339 336 339 324 267 264 246
230 233 239 243 247 250 257 260 259 261 261 264 268 272 273 275 278 282 280 270 266 255 249 235 225 203 196 185 176 173 183 197 205 257 303 307 331 332 335 328 311 269 266 260
240 233 232 235 237 239 241 249 251 250 258 264 267 269 272 274 280 286 281 272 268 257 246 238 225 208 199 194 197 206 205 224 233 256 292 305 318 316 330 323 299 280 259 241
232 234 233 234 237 234 233 239 243 251 258 261 261 264 269 278 283 279 277 276 266 254 238 235 224 225 210 209 219 231 232 249 259 271 279 289 296 311 325 316 288 264 256 252
229 243 249 243 230 231 235 243 250 257 260 262 263 266 266 268 271 273 275 271 251 239 236 229 221 214 216 223 233 243 250 258 270 273 278 278 305 320 317 314 291 270 263 264
227 228 238 244 240 236 233 239 247 254 259 262 263 266 266 264 267 271 275 276 265 236 237 224 218 219 225 228 237 246 257 271 273 273 290 300 304 318 310 302 294 262 258 263
242 234 227 234 239 244 250 252 254 257 262 256 257 262 269 268 269 272 274 278 274 252 250 236 232 232 228 234 246 249 258 267 279 293 296 311 313 305 303 312 316 290 266 258
252 246 241 237 237 240 245 249 254 261 260 261 263 266 270 272 262 264 272 274 274 270 251 231 231 238 235 238 247 252 263 272 283 289 296 306 301 291 303 318 323 306 277 262
252 251 253 255 254 249 249 250 253 256 253 254 264 269 271 275 268 264 261 269 270 266 255 248 240 234 237 243 254 262 266 274 279 283 282 293 293 290 295 304 329 318 292 285
257 253 254 248 256 262 259 264 266 268 261 256 261 261 263 265 260 262 261 256 252 255 255 235 234 241 247 247 254 257 263 264 272 272 274 278 290 300 303 295 314 314 310 300
250 251 248 251 252 252 255 254 252 260 261 260 256 255 255 254 253 250 257 255 250 246 241 237 238 237 243 249 260 271 273 266 270 264 263 278 284 299 304 300 294 286 285 278
258 251 246 242 243 240 240 246 246 245 249 249 252 252 254 255 250 241 244 251 255 255 250 245 246 249 257 267 273 277 279 270 259 253 270 280 278 284 287 294 294 288 281 267
257 256 253 251 246 246 251 253 254 252 249 244 243 244 251 252 256 252 243 242 243 249 253 257 256 256 262 270 270 272 263 272 261 261 273 274 275 278 286 289 287 289 295 294
256 250 253 255 250 245 246 247 248 247 240 234 237 240 250 254 253 256 251 245 245 239 242 248 250 249 250 257 264 261 244 254 265 280 271 272 277 288 294 294 297 296 295 296
260 258 251 245 246 246 249 249 251 246 233 233 230 230 241 248 250 248 258 255 252 246 249 250 252 253 243 237 260 270 256 248 260 270 277 286 284 286 290 292 294 298 300 298
257 257 256 252 241 241 243 246 251 253 246 229 230 223 227 239 246 251 253 253 255 255 247 246 249 251 245 225 223 258 263 254 250 272 289 288 281 282 285 293 299 296 295 297
254 251 252 251 246 243 240 240 241 247 252 251 240 226 226 228 238 242 245 247 248 252 253 255 258 260 250 242 232 235 249 263 273 280 282 279 278 288 294 292 288 292 300 304
254 252 250 249 245 243 241 240 238 239 242 247 248 242 232 233 234 239 245 246 247 250 249 251 256 257 258 257 252 251 252 256 268 273 273 274 281 283 282 274 283 289 301 305
Height
10931 10936 10940 10946 10950 10953 10958 10962 10966 10970 10974 10975 10976 10978 10978 10979 10980 10981 10982 10983 10983 10982 10982 10982 10980 10980 10981 10980 10981 10981 10982 10983 10986 10988 10989 10991 10992 10993 10994 10995 10996 10997 10998 10998
10928 10933 10935 10937 10942 10947 10951 10956 10961 10965 10968 10970 10972 10974 10974 10974 10974 10976 10977 10978 10977 10976 10976 10976 10975 10975 10976 10975 10976 10977 10977 10978 10981 10983 10985 10986 10988 10989 10991 10991 10992 10994 10995 10995
10923 10926 10933 10938 10941 10946 10950 10954 10958 10961 10964 10966 10967 10969 10970 10969 10968 10969 10970 10971 10972 10972 10971 10970 10970 10970 10970 10969 10971 10973 10973 10975 10976 10977 10979 10981 10983 10983 10984 10986 10987 10989 10991 10992
10919 10923 10929 10934 10938 10941 10944 10949 10952 10956 10960 10962 10964 10966 10966 10966 10965 10964 10964 10962 10962 10963 10964 10964 10964 10964 10965 10965 10966 10967 10968 10968 10970 10973 10975 10976 10977 10979 10981 10982 10983 10985 10986 10987
10915 10918 10925 10930 10934 10937 10941 10945 10949 10952 10955 10957 10959 10959 10959 10960 10959 10959 10957 10956 10955 10955 10956 10957 10958 10960 10959 10960 10961 10962 10963 10966 10968 10969 10971 10972 10974 10974 10975 10975 10977 10980 10981 10982
10910 10916 10920 10923 10928 10934 10939 10940 10944 10946 10948 10950 10951 10951 10952 10952 10951 10952 10951 10950 10949 10949 10950 10951 10952 10954 10956 10957 10957 10957 10959 10962 10964 10965 10967 10968 10969 10970 10969 10969 10969 10970 10973 10975
10910 10913 10915 10919 10925 10931 10934 10937 10939 10938 10940 10940 10941 10942 10941 10941 10942 10942 10943 10945 10945 10944 10945 10945 10947 10948 10951 10952 10953 10955 10957 10961 10963 10963 10963 10963 10963 10964 10963 10961 10959 10961 10963 10965
10905 10907 10912 10916 10920 10925 10930 10932 10930 10932 10932 10931 10931 10931 10931 10930 10932 10935 10937 10940 10941 10940 10940 10940 10942 10944 10947 10949 10950 10951 10955 10958 10959 10960 10961 10961 10961 10960 10958 10957 10954 10953 10953 10956
10902 10906 10908 10912 10915 10919 10923 10924 10924 10923 10923 10924 10923 10922 10922 10923 10925 10929 10932 10933 10935 10936 10936 10936 10938 10940 10944 10947 10950 10951 10952 10954 10955 10955 10955 10954 10953 10953 10951 10949 10948 10947 10946 10947
10897 10901 10903 10907 10910 10914 10916 10917 10918 10917 10917 10916 10916 10915 10916 10919 10921 10924 10927 10925 10926 10927 10928 10930 10934 10938 10941 10944 10945 10946 10947 10949 10950 10949 10948 10947 10946 10946 10944 10941 10939 10939 10939 10940
10887 10891 10894 10898 10902 10906 10910 10911 10913 10912 10912 10911 10909 10908 10908 10912 10914 10916 10916 10917 10919 10919 10920 10924 10928 10933 10936 10939 10940 10940 10941 10943 10943 10943 10943 10943 10942 10939 10936 10933 10930 10932 10933 10934
10880 10884 10888 10891 10895 10899 10903 10903 10905 10907 10908 10905 10902 10901 10903 10905 10907 10907 10908 10912 10912 10912 10914 10917 10922 10927 10930 10933 10935 10937 10938 10939 10940 10940 10938 10938 10938 10934 10930 10925 10922 10924 10926 10929
10874 10878 10883 10886 10888 10891 10895 10897 10899 10900 10900 10898 10896 10895 10897 10899 10900 10899 10902 10905 10906 10906 10908 10912 10916 10921 10925 10928 10931 10932 10933 10934 10933 10933 10932 10930 10930 10925 10921 10916 10912 10913 10917 10919
10866 10871 10876 10878 10879 10883 10885 10888 10891 10893 10893 10893 10890 10888 10891 10894 10893 10893 10895 10898 10901 10902 10902 10906 10910 10915 10919 10923 10925 10926 10927 10928 10928 10927 10926 10924 10920 10915 10911 10908 10904 10905 10906 10908
10860 10862 10865 10867 10871 10874 10879 10883 10885 10887 10888 10888 10885 10882 10884 10888 10888 10887 10889 10891 10894 10896 10898 10901 10904 10908 10912 10916 10918 10920 10921 10921 10921 10921 10919 10916 10912 10909 10904 10899 10897 10896 10896 10898
10851 10855 10856 10857 10861 10866 10870 10874 10877 10879 10881 10881 10880 10880 10879 10883 10884 10882 10883 10885 10888 10892 10895 10897 10901 10904 10906 10910 10911 10912 10913 10914 10915 10914 10912 10909 10907 10903 10898 10894 10892 10890 10890 10892
10840 10843 10847 10851 10853 10857 10861 10864 10869 10873 10873 10874 10874 10875 10875 10877 10878 10878 10879 10881 10883 10886 10889 10892 10895 10898 10900 10903 10904 10905 10906 10906 10907 10905 10904 10901 10898 10897 10894 10891 10889 10889 10888 10888
10833 10835 10837 10843 10844 10851 10851 10857 10860 10862 10865 10867 10868 10867 10869 10869 10871 10871 10873 10877 10878 10880 10882 10886 10889 10892 10894 10895 10898 10899 10900 10899 10898 10897 10896 10894 10893 10890 10888 10887 10886 10887 10886 10886
10821 10825 10828 10830 10833 10838 10840 10845 10848 10850 10854 10857 10859 10858 10861 10862 10863 10866 10866 10869 10871 10874 10877 10879 10882 10885 10887 10890 10890 10890 10891 10891 10890 10890 10890 10889 10887 10884 10884 10883 10884 10885 10885 10884
10813 10814 10818 10820 10822 10826 10828 10831 10835 10840 10844 10846 10849 10851 10853 10853 10856 10860 10861 10862 10863 10864 10867 10869 10872 10875 10876 10877 10880 10881 10882 10881 10879 10881 10882 10883 10881 10881 10882 10880 10881 10882 10881 10879
10805 10805 10808 10809 10814 10818 10821 10823 10827 10833 10838 10838 10840 10843 10842 10844 10847 10851 10855 10855 10857 10859 10860 10860 10863 10864 10866 10869 10871 10872 10873 10873 10874 10877 10876 10878 10878 10876 10875 10875 10875 10873 10872 10870
10793 10796 10799 10800 10805 10809 10810 10812 10817 10822 10826 10830 10833 10835 10833 10834 10839 10839 10846 10849 10851 10853 10854 10856 10855 10857 10859 10861 10863 10863 10865 10866 10870 10872 10873 10872 10871 10869 10868 10868 10868 10867 10865 10863
10779 10783 10786 10790 10796 10798 10800 10803 10806 10811 10816 10821 10824 10827 10827 10825 10830 10834 10835 10840 10842 10846 10849 10850 10850 10850 10853 10855 10858 10858 10861 10862 10865 10866 10866 10864 10863 10863 10863 10863 10862 10860 10858 10855
10764 10767 10768 10773 10785 10787 10790 10792 10795 10798 10804 10811 10814 10817 10819 10820 10823 10826 10829 10833 10834 10837 10840 10844 10845 10845 10847 10848 10850 10855 10855 10856 10858 10860 10858 10857 10859 10859 10859 10858 10856 10854 10851 10848
10744 10746 10749 10752 10763 10767 10774 10781 10785 10788 10791 10797 10803 10808 10810 10814 10815 10818 10822 10825 10827 10829 10833 10835 10838 10840 10841 10843 10845 10847 10848 10850 10851 10852 10852 10852 10854 10853 10852 10851 10850 10848 10845 10842
10712 10718 10723 10729 10738 10746 10753 10761 10770 10775 10779 10783 10789 10796 10801 10805 10808 10810 10812 10816 10818 10820 10825 10827 10830 10832 10835 10836 10838 10840 10841 10842 10844 10845 10846 10847 10847 10847 10847 10846 10843 10841 10839 10837